Top countries

USA - 10979
Canada - 1984
United Kingdom - 1922
Australia - 1216
Poland - 1115
Brazil - 1096
Germany - 1090
Iran - 1053
Russia - 979
Greece - 934
France - 920
Mexico - 918
Some observations

Total members: 52738
Guys: 43665
Girls: 9032

Positions

Admin
Staff
Moderator
Elite
Contributor
Search







Pages: 1 ... 764 765 766 [767] 768 769 770 ... 1055
Username Sex Age Location Registered Last seen online Posts Points
38301 Vandroya Brazil 07.06.2013 409d ago 0 0
38302 Micaela Azerbaijan 07.06.2013 never 0 0
38303 Astillabower 24 USA 07.06.2013 409d ago 0 0
38304 Rebbeca Cayman Islands 07.06.2013 never 0 0
38305 Josie Austria 08.06.2013 never 0 0
38306 Magda Haiti 07.06.2013 never 0 0
38307 wrenchgil Philippines 07.06.2013 271d ago 0 0
38308 Branden Australia 08.06.2013 never 0 0
38309 junior021 USA 07.06.2013 409d ago 0 0
38310 Sondra Rwanda 08.06.2013 never 0 0
38311 SadkErenTatekin 08.06.2013 401d ago 0 0
38312 Tangela Marshall Islands 08.06.2013 never 0 0
38313 Philomena Lebanon 08.06.2013 never 0 0
38314 Marissa Yemen 08.06.2013 never 0 0
38315 Deadcenter Ukraine 08.06.2013 404d ago 0 0
38316 Ramiro Zambia 08.06.2013 never 0 0
38317 veal Poland 08.06.2013 408d ago 0 0
38318 Le3o 17 Paraguay 08.06.2013 408d ago 0 0
38319 Nocturne Iran 08.06.2013 never 0 0
38320 Nocturne-km Iran 08.06.2013 5d ago 0 0
38321 DemmelitionMan 08.06.2013 364d ago 0 0
38322 Rosalind Kiribati 09.06.2013 never 0 0
38323 bagby Latvia 09.06.2013 139d ago 0 0
38324 AliMohammed 09.06.2013 69d ago 0 0
38325 bigdr82 Australia 08.06.2013 never 0 0
38326 UncleProg 23 Poland 08.06.2013 9d ago 0 0
38327 Pavel Czech Republic 08.06.2013 401d ago 0 0
38328 romeosingal USA 08.06.2013 408d ago 0 0
38329 Maybell Oman 08.06.2013 never 0 0
38330 LordInfinity Argentina 08.06.2013 never 0 0
38331 deepgrowl88 37 Norway 09.06.2013 407d ago 0 0
38332 tempoklad United Kingdom 08.06.2013 14d ago 0 0
38333 siki Serbia 09.06.2013 394d ago 0 0
38334 quill5soccer Indonesia 08.06.2013 never 0 0
38335 Leigh Latvia 09.06.2013 never 0 0
38336 hieidemon Argentina 08.06.2013 291d ago 0 0
38337 Kenton Brunei 08.06.2013 never 0 0
38338 DavideIsola 09.06.2013 408d ago 0 0
38339 A6'sGurrrl 14 USA 09.06.2013 408d ago 0 0
38340 kyyvits Estonia 09.06.2013 408d ago 0 0
38341 gchirinoegui 24 Venezuela 10.06.2013 5h ago 0 0
38342 engenas Lithuania 09.06.2013 84d ago 0 0
38343 Janrey United Kingdom 09.06.2013 408d ago 0 0
38344 RikardIncarnit Sweden 09.06.2013 407d ago 0 0
38345 ego Italy 09.06.2013 never 0 0
38346 Gchirino Venezuela 10.06.2013 never 0 0
38347 Jenna Korea, South 10.06.2013 never 0 0
38348 Emba Sweden 09.06.2013 never 0 0
38349 grooweN Sweden 09.06.2013 406d ago 0 0
38350 TiiaLutsoja 09.06.2013 230d ago 0 0
Pages: 1 ... 764 765 766 [767] 768 769 770 ... 1055